Location: Unspecified
(0.0000°N, 0.0000°E)
Time: 16:18:07
(UTC+00:00)

Transit 2A - Pass Details

Date: 24 November 2019
Orbit: 602 x 957 km, 66.7° (Epoch: 12 December)

Event Time Altitude Azimuth Distance (km) Brightness Sun altitude
Rises 21:21:50 0° 334° (NNW) 2,980 - -49.0°
Reaches altitude 10° 21:24:03 10° 331° (NNW) 2,114 - -49.5°
Maximum altitude 21:28:48 63° 250° (WSW) 810 - -50.5°
Drops below altitude 10° 21:34:06 10° 169° (S) 2,350 - -51.6°
Sets 21:36:40 0° 166° (SSE) 3,343 - -52.1°
